Location: Saratoga Springs
(43.0831°N, 73.7850°W)
Time: 02:28:33
(UTC-04:00)

Vanguard 3 - Pass Details

Date: 26 April 2024
Orbit: 509 x 3232 km, 33.3° (Epoch: 26 May)

Event Time Altitude Azimuth Distance (km) Brightness Sun altitude
Exits shadow 02:14:29 37° 172° (S) 3,894 10.1 -30.2°
Maximum altitude 02:17:04 39° 156° (SSE) 3,692 10.1 -30.0°
Drops below altitude 10° 02:29:11 10° 95° (E) 4,550 11.2 -29.1°
Sets 02:32:28 0° 87° (E) 5,209 11.7 -28.8°
